Location: Home
(42.5358°N, 72.7383°W)
Time: 13:10:40
(UTC-05:00)

BlueWalker 3 - Pass Details

Date: 02 December 2023
Orbit: 485 x 499 km, 53.2° (Epoch: 01 March)

Event Time Altitude Azimuth Distance (km) Brightness Sun altitude
Exits shadow 03:56:22 12° 63° (ENE) 1,585 5.1 -33.5°
Drops below altitude 10° 03:56:45 10° 67° (ENE) 1,697 5.3 -33.4°
Enters shadow 04:55:44 -66° 293° (WNW) 12,216 8.9 -22.6°
Maximum altitude 05:32:40 71° 35° (NE) 526 2.0 -16.0°
